Location: Ermatingen
(47.6706°N, 9.0857°E)
Time: 08:51:54
(UTC+00:00)

Cosmos 2098 Rocket - Pass Details

Date: 18 September 2020
Orbit: 366 x 1185 km, 82.9° (Epoch: 27 October)

Event Time Altitude Azimuth Distance (km) Brightness Sun altitude
Rises 20:52:50 0° 350° (N) 4,068 8.0 -31.7°
Reaches altitude 10° 20:55:39 10° 350° (N) 3,059 7.2 -32.0°
Enters shadow 21:02:19 76° 330° (NNW) 1,091 4.2 -32.8°
